Theta_e
353 352 352 350 350 348 347 346 319 327 324 315 317 321 319 331 331 330 330 335 329 335 339 338 338 338 338 332 333 335 336 332 336 316 315 337 351 353 355 355 356 357 357 358 360 360 361 363 366 365 366 366 367 367 367 366 367 366 366 366 366 367 366 365 365 365 365 365 365 365 366 365 364 365 364 364 364 364 363 363 363 363 363 362 363 363 363 363 362 362 362 362 362 361 362 362 362
351 351 349 350 346 345 333 344 323 319 320 316 317 324 326 329 329 327 329 331 333 337 338 340 338 342 340 338 337 337 334 338 339 337 343 349 353 352 354 355 356 355 357 359 360 360 361 363 365 366 365 366 367 368 366 366 366 366 366 366 366 366 365 365 365 364 365 366 366 366 365 365 364 364 364 363 362 363 363 362 364 363 363 363 363 363 363 362 362 362 362 361 362 361 361 362 362
349 348 347 349 346 343 343 338 316 317 313 311 319 325 332 327 325 330 333 333 338 337 341 340 342 337 337 337 332 332 327 341 341 343 342 349 344 347 354 355 356 357 357 358 359 360 361 363 365 366 366 367 367 366 366 366 366 366 366 366 366 366 365 365 366 366 366 365 365 365 365 364 363 363 362 363 363 362 363 363 364 364 363 363 363 362 362 362 362 361 363 362 362 362 361 361 361
349 348 345 345 338 341 328 329 320 316 313 316 316 325 330 328 328 332 338 339 337 336 340 336 334 341 335 330 331 337 335 336 342 342 341 344 346 351 354 354 356 356 357 358 359 361 361 364 366 366 366 366 366 366 366 366 366 366 366 366 366 366 366 366 366 365 365 365 365 364 364 363 362 362 362 362 363 364 364 363 364 363 363 363 363 362 362 361 362 362 361 362 363 362 362 362 361
354 355 355 342 337 328 329 324 322 321 314 319 316 328 328 331 333 334 335 339 338 341 336 335 334 339 338 335 337 330 332 341 342 346 344 348 353 353 354 355 355 354 355 357 359 361 362 366 366 366 365 366 366 366 366 366 366 365 364 365 365 365 365 366 365 365 364 364 364 364 363 363 362 362 362 363 363 364 363 363 364 363 363 363 362 362 361 361 362 362 363 363 363 362 362 362 361
353 350 354 347 332 345 334 320 319 318 324 330 324 327 331 335 334 334 335 337 337 336 338 336 333 333 333 335 339 334 341 333 342 344 346 347 352 354 354 355 353 353 355 357 359 360 362 366 366 365 365 365 366 366 366 365 365 365 365 364 364 364 365 365 365 365 365 365 364 363 363 362 362 362 362 362 363 363 364 364 363 362 362 363 362 361 362 362 363 362 362 361 361 362 362 361 360
346 347 346 343 342 340 321 319 318 321 326 330 327 329 332 334 338 337 336 334 336 336 339 334 336 334 329 335 339 343 347 346 343 344 349 350 352 354 354 352 352 352 356 358 359 361 363 366 366 366 366 366 366 366 365 365 364 364 364 364 364 364 365 365 365 364 364 364 364 363 363 362 362 362 363 363 362 363 363 363 363 362 362 362 362 362 362 361 362 361 361 361 361 360 361 360 360
354 345 340 333 326 329 320 321 320 325 329 333 334 333 336 339 338 335 334 330 330 335 335 336 337 333 330 340 330 342 346 348 347 349 351 351 352 352 352 350 350 352 355 357 358 361 367 366 366 366 365 366 365 365 365 365 364 364 364 364 364 365 365 365 364 363 363 364 364 363 363 362 362 362 363 362 362 363 363 362 363 362 361 361 361 362 362 362 361 361 361 361 362 361 361 360 361
348 340 345 333 322 325 321 319 322 331 328 334 334 340 341 339 338 336 332 334 335 339 334 335 336 328 330 332 332 340 345 348 349 351 350 351 350 351 350 350 350 351 353 356 359 363 363 366 365 365 365 365 365 365 365 365 364 365 364 364 365 364 365 365 364 363 363 363 363 363 363 362 362 363 363 363 362 363 363 362 361 361 362 362 361 361 362 362 362 362 362 361 361 361 361 362 361
342 343 327 326 328 316 319 322 321 326 329 335 334 335 339 339 334 338 334 332 335 336 335 337 338 331 333 329 333 339 343 348 349 348 349 350 350 350 350 351 353 353 355 359 361 362 362 369 366 365 364 366 366 365 365 365 365 365 365 365 365 365 365 365 365 364 364 364 364 364 363 362 362 362 363 362 362 363 363 363 362 362 362 361 362 363 363 362 363 361 361 360 361 361 360 361 361
336 345 342 324 318 317 316 319 325 329 330 335 338 340 342 343 340 335 337 334 338 335 335 338 333 332 334 332 334 345 349 350 347 344 348 349 350 350 350 353 357 358 357 359 360 362 361 362 366 365 366 366 366 365 365 365 365 365 365 365 365 365 365 365 365 364 363 364 365 363 363 362 363 363 363 363 362 362 363 363 363 362 362 362 362 363 363 362 362 361 361 361 362 362 361 359 361
330 330 332 319 317 318 320 320 324 330 334 332 332 340 342 340 339 334 334 332 335 332 333 337 332 337 331 331 334 342 347 347 347 348 349 350 350 350 352 356 357 358 358 359 361 361 361 361 363 367 366 365 365 366 366 366 365 365 365 366 365 365 365 365 365 364 364 364 364 363 363 363 363 363 362 363 363 363 363 363 363 362 362 362 362 363 363 363 362 362 361 362 363 363 363 361 361
332 334 327 321 320 323 326 324 326 326 327 328 332 340 342 338 334 336 335 335 334 332 333 339 338 337 328 330 337 343 343 345 348 349 349 349 349 351 354 356 356 357 359 360 359 359 360 361 362 362 364 366 366 366 366 365 365 365 366 366 365 365 365 364 364 363 364 364 363 363 363 364 363 362 362 362 363 364 364 363 363 363 363 363 362 363 363 363 362 362 363 362 363 363 363 362 364
336 335 330 318 330 325 323 325 326 323 325 332 337 341 340 338 337 338 337 334 336 336 338 341 339 338 331 333 334 335 340 346 348 348 349 349 349 350 352 355 356 357 359 359 358 359 360 360 361 362 363 362 362 365 366 365 364 364 365 365 366 365 364 363 364 363 363 363 363 364 364 364 364 363 362 362 363 364 364 363 363 363 362 363 362 363 363 363 363 363 363 363 364 363 363 363 364
336 341 333 326 322 325 327 321 323 324 325 331 336 337 337 339 340 339 337 334 334 342 342 344 340 334 325 330 329 335 339 346 348 349 348 348 348 350 352 354 355 356 357 358 359 358 358 359 361 361 362 361 361 361 361 363 365 364 365 366 365 365 365 364 364 363 364 363 364 364 364 364 364 364 364 363 364 363 363 362 362 362 362 362 363 364 364 364 363 363 363 364 363 363 362 362 363
341 337 331 323 320 319 324 322 324 323 326 334 337 341 336 338 343 337 338 342 338 346 341 334 345 344 334 333 334 339 342 345 346 347 346 345 346 349 352 352 353 355 356 357 357 357 358 359 360 360 360 361 360 360 360 360 363 364 364 365 366 365 364 364 364 363 364 364 364 364 364 362 363 362 365 362 363 363 363 361 362 362 362 363 364 364 364 363 363 363 363 363 363 362 363 361 361
343 339 324 322 319 323 324 322 324 320 329 332 338 337 333 333 341 341 346 344 336 336 339 340 339 343 336 336 339 342 344 346 347 345 343 342 344 346 348 349 350 352 354 354 355 356 358 359 359 359 360 360 360 360 359 359 362 365 363 365 366 366 365 364 364 364 364 363 363 364 363 360 360 360 360 360 362 361 362 362 362 363 363 364 364 364 364 364 363 363 363 363 363 362 362 362 361
338 326 323 319 321 321 326 326 328 330 331 333 337 339 336 329 337 340 344 340 340 337 336 340 342 340 341 340 341 342 343 343 343 340 339 339 341 341 343 345 348 347 349 351 353 356 357 357 358 359 359 359 359 360 360 361 361 362 359 360 363 364 365 365 362 361 364 361 364 362 360 362 358 358 359 363 361 361 360 363 363 363 363 364 365 365 365 364 363 363 362 362 362 362 362 358 360
329 325 324 318 324 325 330 333 333 331 330 334 335 337 337 334 338 342 337 333 336 333 334 336 337 339 341 339 340 341 341 341 340 339 338 338 338 338 340 343 345 346 346 349 352 355 356 357 358 358 358 359 359 359 360 360 359 359 359 359 361 364 364 362 360 361 358 360 359 361 362 360 359 361 360 362 363 363 362 362 364 363 363 364 364 365 365 364 363 363 362 363 363 363 358 355 356
330 323 316 322 329 331 338 338 334 335 336 334 334 336 336 337 338 340 336 332 334 334 330 333 333 334 336 337 339 340 340 339 339 337 337 338 338 338 339 341 343 344 347 349 352 356 357 357 357 358 358 358 358 358 359 358 358 359 359 359 360 360 359 358 357 357 358 357 358 358 359 357 358 358 363 365 364 360 360 362 364 364 364 364 364 363 364 364 364 363 363 364 366 364 357 356 359
328 322 317 323 330 327 335 340 338 335 338 336 336 337 335 337 338 339 336 331 333 336 338 334 333 335 336 337 338 339 338 338 337 337 337 337 338 339 340 341 342 345 348 351 353 355 356 357 356 357 358 358 356 357 357 357 358 358 358 359 359 359 359 358 359 359 358 358 358 359 358 357 358 358 358 359 357 358 357 357 359 359 359 359 364 358 359 361 362 360 361 363 360 360 358 356 358
325 323 326 333 333 328 337 338 339 335 340 336 337 335 334 341 341 336 339 331 327 334 336 338 338 338 337 337 337 338 338 337 336 336 336 337 336 338 340 341 345 348 351 349 352 354 355 356 357 357 358 357 356 356 356 358 358 356 357 358 359 360 360 360 359 359 360 359 359 362 359 357 358 357 356 357 358 357 357 357 357 358 359 360 365 359 359 359 359 358 358 359 359 360 357 357 361
316 321 321 333 332 332 334 335 335 337 338 336 334 337 339 336 336 337 336 336 336 343 340 340 340 340 340 339 338 337 337 336 335 335 336 336 337 339 339 341 344 346 349 349 352 354 355 357 357 357 356 356 355 356 356 358 355 356 357 359 359 358 359 359 358 359 360 360 360 363 356 357 357 356 356 357 357 357 356 358 359 359 359 358 363 357 360 360 358 357 357 358 358 357 356 352 351
320 314 319 331 331 335 335 332 336 337 335 338 340 338 334 334 331 339 335 338 345 343 343 341 341 342 341 338 337 337 337 336 336 337 338 337 338 339 340 341 344 348 348 349 352 354 356 356 357 358 357 357 355 355 356 354 354 356 357 362 358 359 359 358 358 358 361 358 360 365 365 356 357 356 358 357 358 358 358 360 361 360 358 360 363 357 355 356 358 358 357 355 355 355 354 354 355
318 316 319 328 331 335 335 334 335 338 339 340 339 334 333 336 335 339 336 339 343 344 342 342 341 341 340 338 337 337 337 337 337 338 339 339 339 341 341 342 344 346 346 348 351 353 355 356 356 356 358 358 358 355 353 352 354 356 358 357 355 363 357 357 358 358 356 358 361 361 362 358 358 356 357 359 359 356 357 357 357 359 358 358 355 358 355 355 360 361 358 356 357 357 353 351 352
318 318 320 322 329 335 334 334 336 335 337 337 333 332 335 338 340 335 340 339 342 341 342 340 340 339 339 338 338 337 337 337 337 337 337 338 339 339 339 341 343 345 346 348 351 352 355 357 356 356 357 357 355 353 352 350 353 356 356 355 356 361 355 356 358 355 356 356 355 358 363 357 356 357 357 357 359 356 357 357 359 359 357 357 357 358 360 360 360 359 358 355 354 354 355 354 358
318 318 320 319 323 332 333 333 333 335 338 336 330 331 333 337 335 329 337 340 340 339 338 339 339 338 339 338 338 338 338 338 338 339 338 338 338 338 338 340 342 344 347 346 349 351 356 356 356 356 356 358 353 352 351 350 353 354 354 355 358 356 356 357 357 355 353 353 354 359 362 362 357 357 357 357 358 356 354 355 354 357 358 361 359 360 362 361 362 361 359 357 357 357 359 360 357
315 315 313 315 324 332 332 334 335 335 333 333 333 332 334 337 334 330 335 339 340 338 336 336 336 338 339 339 339 339 339 340 339 339 336 336 336 337 337 338 340 344 345 345 347 351 354 354 353 354 356 356 353 352 355 351 351 352 353 353 355 354 356 355 354 353 356 351 354 358 360 359 365 361 357 355 356 356 354 354 353 358 358 359 362 360 361 361 363 361 362 359 357 358 359 358 358
313 313 308 311 315 316 332 331 332 334 332 334 334 331 328 329 327 337 336 339 339 338 335 335 336 337 338 338 339 339 339 340 340 338 337 337 338 339 337 339 341 343 345 346 347 350 350 350 351 353 355 356 352 353 352 351 351 353 352 352 352 355 354 352 352 351 351 352 355 360 361 363 364 360 358 356 361 358 357 358 358 361 358 358 362 360 362 363 362 363 359 360 359 357 357 356 359
312 310 307 307 308 308 324 331 334 331 333 334 332 315 319 326 331 334 337 337 337 334 333 334 335 336 336 337 338 338 340 340 339 338 337 338 339 339 338 340 342 341 343 345 347 347 349 351 353 353 354 354 352 353 352 351 351 352 353 353 356 354 353 352 352 351 353 355 358 362 361 363 361 360 360 360 360 358 357 359 358 358 355 357 359 359 362 359 359 359 356 357 361 360 355 355 355
303 308 309 302 303 302 313 315 330 327 333 333 331 313 317 326 329 334 336 339 335 331 332 333 334 335 336 337 337 337 339 340 340 340 339 340 340 340 339 341 341 341 342 344 345 346 348 350 352 352 354 353 354 354 353 352 351 352 350 353 352 352 355 354 354 354 356 357 360 355 357 361 361 362 364 362 359 359 358 359 360 360 361 361 358 364 360 362 361 357 360 359 358 356 355 359 356
307 302 298 302 300 302 310 315 319 322 327 334 327 314 318 323 329 334 336 337 336 331 331 333 334 334 335 336 336 337 338 340 341 341 341 340 340 339 339 340 342 342 341 342 344 345 345 349 351 351 351 351 352 354 353 353 351 351 352 358 352 355 354 355 357 357 359 361 359 355 357 361 359 360 362 361 357 357 358 359 360 362 364 364 363 364 365 360 359 361 360 360 356 356 358 354 355
305 300 300 299 301 302 306 311 315 318 326 329 325 316 321 323 331 333 336 336 334 332 331 332 334 334 335 336 336 336 337 338 340 340 341 340 341 340 340 341 342 342 341 341 342 342 344 348 350 350 349 350 352 353 353 352 352 352 353 352 352 355 352 354 355 357 359 360 360 359 360 361 358 358 360 364 360 359 359 359 361 362 364 362 361 362 361 363 360 360 359 363 360 355 354 355 353
298 301 297 302 301 303 301 310 313 316 326 321 326 320 322 325 329 333 335 335 333 330 330 331 334 332 334 335 335 336 336 337 337 338 339 340 342 341 341 345 343 343 342 340 341 341 345 346 349 349 349 351 351 352 352 353 352 353 352 351 354 352 350 352 353 355 358 358 360 362 363 361 361 360 360 366 360 357 360 360 361 361 364 364 362 362 359 360 359 360 357 362 362 357 353 351 354
297 297 297 299 303 303 303 304 310 313 322 322 322 320 321 324 328 331 332 335 334 332 331 331 334 333 334 334 335 336 336 336 337 338 340 341 342 342 342 342 343 343 343 340 341 341 344 345 349 349 348 350 351 353 352 352 352 353 350 349 347 353 351 349 351 353 355 358 360 363 364 365 366 365 366 364 366 362 360 363 361 362 364 363 361 358 357 360 363 359 359 359 362 360 355 353 352
302 302 300 301 299 300 302 307 311 313 316 320 320 316 319 323 326 328 331 334 333 332 333 334 335 333 334 334 335 335 336 336 339 340 341 341 342 342 342 342 342 343 343 341 343 340 343 344 347 348 347 350 351 352 352 349 349 349 346 345 345 350 351 353 351 350 355 358 362 363 363 365 367 367 367 366 365 361 361 362 362 363 364 362 358 355 355 356 355 357 356 357 358 360 361 357 354
307 305 302 300 300 303 307 309 311 313 315 317 319 319 321 323 325 328 330 331 332 332 332 333 333 332 336 333 334 335 335 336 340 341 341 341 342 342 342 342 341 343 342 341 341 340 342 345 346 345 346 350 352 349 349 347 345 346 345 343 342 344 351 350 351 354 357 359 361 362 364 365 367 367 367 367 363 366 362 362 362 365 365 361 358 356 358 358 359 360 360 363 357 356 356 355 355
305 303 302 301 303 300 305 308 311 313 314 314 318 318 321 322 325 328 330 330 329 331 332 332 334 332 335 335 334 335 335 339 340 339 340 341 342 342 342 341 343 340 341 342 340 342 341 345 345 344 348 350 352 350 350 348 347 347 344 341 342 344 350 347 346 351 357 359 360 362 364 365 367 367 368 367 366 360 360 360 359 365 363 361 359 362 359 367 362 360 360 353 358 354 352 354 355
304 301 300 300 300 304 306 307 309 312 310 311 316 315 319 323 325 328 328 329 330 332 333 332 334 333 334 335 336 337 339 336 338 339 340 340 341 342 342 341 341 342 342 342 342 343 341 345 344 344 349 350 352 352 351 349 350 350 347 344 344 345 351 349 349 351 360 359 360 362 363 364 366 367 368 370 367 362 360 362 363 363 361 363 362 361 362 361 360 359 357 354 353 355 356 361 355
301 299 297 296 302 300 295 304 308 311 309 308 316 315 319 323 326 327 329 329 329 332 333 334 336 334 333 335 337 336 337 337 335 337 338 339 340 341 341 341 340 342 342 341 342 343 342 346 344 344 350 351 352 353 354 352 351 350 348 347 346 346 345 349 351 353 358 358 358 360 363 363 364 364 367 368 367 367 365 364 366 363 359 363 363 361 359 359 359 358 358 358 356 350 350 352 361
302 302 300 299 301 302 301 300 305 307 308 311 313 313 317 320 320 323 327 330 330 331 333 334 338 337 337 338 338 339 338 338 338 336 338 339 339 340 341 341 342 341 341 340 342 343 341 346 346 345 350 352 352 355 354 353 353 350 348 348 346 346 348 346 346 344 353 356 356 356 361 362 364 363 364 365 365 364 363 365 362 364 361 364 365 363 361 360 361 358 358 356 354 352 349 351 354
299 303 303 303 304 302 303 304 302 298 298 306 307 300 306 318 320 321 324 326 326 329 329 334 336 336 336 335 337 339 340 341 339 339 337 339 339 339 341 342 341 341 341 341 344 344 341 346 347 347 350 353 352 354 353 352 351 346 345 343 340 338 338 339 340 339 348 352 353 355 359 362 362 362 362 363 364 364 362 364 361 365 363 364 364 363 361 358 357 358 359 359 355 356 353 351 349
297 300 306 305 304 304 303 302 301 293 293 302 310 298 297 316 316 319 322 324 324 327 328 335 336 335 335 335 336 337 338 339 341 341 339 338 339 339 341 341 341 341 342 343 344 344 341 347 347 348 348 352 353 353 352 352 349 345 345 342 341 337 337 338 342 340 346 350 352 353 355 358 359 360 361 361 361 363 362 363 363 364 367 365 368 365 360 359 360 360 360 358 358 362 358 349 351
297 306 307 305 304 303 302 302 300 296 303 304 304 303 297 300 314 320 321 321 322 323 327 334 335 335 334 335 337 338 338 339 338 339 340 338 339 339 340 341 342 343 344 343 344 344 343 348 347 349 349 352 354 352 351 352 348 344 344 344 343 339 337 338 341 339 341 347 350 351 353 355 357 358 359 359 360 362 361 361 362 363 365 363 366 365 361 359 359 360 360 360 359 362 361 354 353
302 307 308 306 306 304 304 301 298 298 297 292 298 302 296 298 310 321 320 317 319 320 325 332 333 334 334 335 338 340 340 339 339 339 339 339 339 340 341 341 343 344 345 344 344 345 347 347 348 349 351 350 354 351 351 351 350 344 345 344 343 344 339 341 343 345 341 344 346 350 351 353 356 357 357 360 359 362 363 361 362 361 362 361 367 363 360 360 356 356 361 361 360 361 360 361 358
306 308 309 307 306 306 304 299 299 300 295 291 295 303 293 295 306 315 318 318 317 320 327 331 332 333 333 334 337 341 340 339 340 340 340 340 340 341 343 343 344 344 346 347 346 347 348 348 349 348 351 350 353 351 350 351 350 347 346 343 343 342 345 344 341 346 341 339 339 349 350 352 355 355 359 359 358 361 362 362 362 361 361 362 362 359 358 358 356 358 363 361 363 360 358 361 357
309 307 305 304 303 301 301 301 301 297 291 291 298 300 297 289 301 310 313 316 320 321 325 330 332 333 334 334 336 339 338 339 339 338 341 342 342 341 343 343 343 344 346 347 347 347 350 347 350 348 350 352 354 351 350 350 350 347 346 345 344 341 346 344 339 342 345 340 337 346 349 352 353 353 357 359 357 361 360 363 362 361 362 362 362 357 356 356 354 360 362 363 362 363 362 360 364
306 302 300 299 298 299 298 299 300 292 288 296 299 298 299 289 294 305 310 318 324 323 323 326 330 331 332 333 335 337 338 338 339 338 339 342 342 340 342 342 343 343 345 347 347 348 350 349 350 350 349 353 354 352 350 350 350 349 347 347 345 342 347 344 340 340 344 343 340 342 350 352 352 353 354 357 356 360 361 360 362 361 361 360 359 358 359 358 355 360 359 360 360 363 364 365 362
303 300 300 294 291 292 288 292 288 288 287 297 299 299 295 293 297 302 306 309 325 326 326 327 331 331 332 333 335 336 337 339 338 338 339 340 341 340 340 342 342 343 344 346 347 348 350 350 349 350 350 352 354 353 351 350 350 350 348 347 346 344 346 346 341 341 342 344 344 341 346 350 352 352 352 354 356 356 360 359 359 359 359 361 360 358 357 361 359 356 356 360 359 359 360 363 358
300 298 298 293 288 288 283 288 290 290 296 300 299 301 293 298 299 305 305 308 314 328 329 330 332 332 331 333 334 336 337 338 337 338 340 340 341 341 341 341 343 344 345 346 347 349 350 351 350 350 351 352 355 353 352 350 349 351 349 347 347 346 345 346 344 343 343 343 344 343 342 346 351 352 353 353 355 356 360 360 360 359 361 360 360 359 357 358 362 361 361 357 357 359 359 360 360
299 303 298 295 294 291 286 288 285 288 290 296 301 296 290 292 293 306 307 309 310 329 331 331 332 332 333 334 335 336 336 336 337 337 339 340 341 341 341 342 344 344 345 347 347 349 350 351 351 350 351 352 354 354 352 350 350 351 351 348 348 347 344 345 345 346 343 343 343 346 344 343 346 351 353 354 356 355 359 360 359 358 361 361 361 363 362 360 362 361 364 361 358 360 360 359 359
302 303 303 296 294 298 289 293 293 294 293 294 295 294 297 297 304 308 308 309 309 313 330 331 330 331 332 332 332 334 335 336 337 338 339 340 341 342 342 342 344 345 346 347 347 349 350 351 352 351 352 353 354 355 353 351 350 351 352 349 348 349 348 345 346 349 346 345 344 345 347 345 345 347 351 354 355 355 356 358 360 358 359 363 361 362 361 362 361 359 358 360 358 365 358 357 358
300 301 295 298 303 299 296 298 299 297 293 290 301 299 299 303 304 305 306 307 307 308 321 329 329 331 331 330 331 333 335 337 338 339 339 339 341 342 342 342 345 346 346 346 347 349 350 351 353 352 353 354 354 356 354 352 351 351 352 351 349 349 349 346 344 346 349 346 346 344 347 348 348 348 349 353 352 356 354 358 358 358 359 361 363 361 362 361 362 361 360 358 357 359 358 357 357
301 295 298 305 306 303 299 290 294 292 288 292 298 295 296 296 292 304 304 303 305 306 311 329 330 331 329 330 331 333 335 338 338 339 339 341 342 343 343 344 345 346 347 346 347 348 351 353 353 353 354 354 354 356 355 354 352 352 352 351 350 349 349 348 346 345 349 348 348 346 346 348 349 351 351 351 351 350 356 363 357 357 359 360 362 362 362 362 362 359 361 360 360 359 358 359 359
302 300 307 297 292 291 296 297 287 288 288 290 294 297 298 298 299 302 301 303 304 305 311 328 328 330 329 330 331 333 336 337 337 338 339 340 343 343 343 344 346 347 348 347 348 349 350 354 355 355 355 356 356 357 357 356 355 354 354 353 351 350 350 349 348 347 347 350 349 348 347 348 349 352 352 350 351 349 353 358 357 357 359 359 360 361 362 362 362 359 359 360 360 359 358 357 358
307 307 303 304 298 295 293 298 295 294 288 292 290 295 291 304 303 302 303 304 304 306 306 326 328 330 330 330 331 334 335 336 337 339 339 340 342 344 344 344 345 346 347 348 348 349 350 353 355 355 356 357 357 357 358 357 356 355 355 355 353 352 352 350 349 348 346 348 350 350 349 349 348 350 352 350 350 350 349 356 357 357 359 359 359 360 362 361 361 359 358 359 359 359 358 357 358
297 298 297 299 302 303 299 301 296 292 290 289 290 288 296 302 307 307 306 305 306 306 308 326 328 330 330 331 332 334 335 335 336 338 339 340 341 343 345 345 346 347 348 349 348 348 350 352 355 356 355 356 357 357 358 358 357 356 355 354 354 354 353 352 350 349 347 346 350 352 351 350 350 347 348 350 350 351 350 353 357 356 358 358 358 357 360 361 360 359 358 358 356 357 357 357 357
297 296 294 296 294 294 291 289 300 297 293 287 289 289 297 305 312 311 309 313 308 308 309 317 327 329 330 332 333 333 334 335 337 338 339 340 341 342 345 346 346 347 348 348 348 349 350 351 354 356 357 357 357 357 357 357 357 356 355 354 354 355 355 354 352 351 350 347 347 350 352 351 350 349 347 346 352 352 352 352 354 355 356 358 358 357 358 360 360 359 358 360 358 356 356 356 357
Wind_Speed
9 7 6 7 4 4 2 1 3 0 1 2 2 3 2 6 2 2 2 6 3 4 5 3 7 8 2 6 12 11 14 3 1 4 5 4 11 13 10 14 13 12 11 8 8 7 9 11 13 16 17 17 17 17 16 16 16 16 16 16 16 15 15 15 16 16 17 16 16 16 15 15 15 14 14 13 13 13 14 14 15 15 16 17 16 15 14 14 14 12 12 12 12 11 11 10 11
6 7 7 7 5 3 0 1 1 2 0 3 5 3 2 4 5 5 6 6 2 3 4 2 9 8 8 14 8 14 14 9 7 9 7 12 13 10 14 15 15 14 11 9 8 7 7 9 13 15 17 17 17 17 17 16 16 15 16 15 15 15 15 16 16 16 16 16 15 15 16 15 15 14 13 13 14 13 14 15 15 16 17 16 15 14 13 14 14 14 14 13 14 15 12 12 12
6 7 5 5 3 3 3 1 2 1 2 4 2 1 1 4 6 6 7 7 7 3 4 9 8 8 10 11 12 8 5 8 17 14 10 14 14 11 15 15 14 14 13 9 9 8 7 9 12 15 17 16 17 17 17 16 16 16 16 15 15 15 15 16 16 16 15 15 15 16 15 15 14 14 13 14 13 14 14 15 15 16 16 15 15 14 14 14 14 14 14 13 14 15 15 14 14
6 6 3 5 1 2 1 1 1 1 2 2 6 1 2 4 6 2 13 9 8 12 11 6 1 6 14 14 12 17 11 8 9 15 11 12 9 15 16 15 14 12 11 10 10 9 7 11 13 14 16 16 16 17 17 16 16 16 15 15 14 14 15 15 15 15 15 15 16 16 15 15 14 13 13 14 13 14 14 14 15 15 15 14 14 13 13 13 14 13 13 14 14 15 14 14 14
5 3 4 5 1 1 1 1 1 1 2 0 3 5 4 3 0 10 1 4 4 6 9 6 8 9 14 15 7 5 8 13 10 8 10 10 14 16 17 16 13 12 11 11 10 9 9 14 14 15 16 17 17 17 16 16 15 15 15 14 14 14 14 15 15 15 15 15 15 15 15 14 13 13 14 14 14 14 14 16 15 15 15 14 13 13 12 12 13 13 13 14 14 14 15 15 14
4 4 5 4 1 1 0 2 2 4 5 2 3 4 4 1 6 11 6 7 3 5 4 9 6 7 7 9 6 10 13 8 11 10 13 14 19 20 19 15 14 13 13 10 10 8 9 16 16 16 17 17 16 16 16 15 15 15 14 14 14 14 14 15 15 15 16 16 15 15 14 14 14 14 13 13 14 14 15 15 16 14 15 13 12 12 13 12 13 13 13 14 14 14 14 14 14
2 3 3 2 2 1 2 3 4 4 4 5 2 2 2 0 5 4 5 5 7 5 1 12 15 14 11 8 13 8 9 14 12 13 12 19 21 19 17 14 14 14 14 10 9 9 12 16 17 17 17 16 16 16 16 15 15 15 15 14 15 15 15 15 15 15 16 16 15 15 14 13 14 13 13 13 14 14 15 15 15 15 14 13 12 12 12 13 13 14 14 13 14 14 13 14 15
6 2 3 1 1 0 2 2 3 3 3 4 2 4 3 5 7 3 5 1 3 3 6 11 9 12 11 7 10 13 17 11 16 19 20 18 19 18 16 13 15 14 13 11 9 8 14 16 16 16 17 17 17 16 16 16 16 16 15 15 15 16 16 15 15 15 15 15 15 15 14 13 14 13 14 14 14 14 15 15 15 15 13 13 12 12 13 13 13 14 13 13 13 13 13 14 14
3 3 2 1 2 1 3 3 5 1 6 4 3 2 5 7 7 4 4 4 2 1 6 13 12 14 8 14 10 11 13 19 18 20 21 21 19 18 13 15 15 14 14 12 10 9 10 16 17 17 17 17 17 17 17 16 16 15 15 15 15 16 15 15 14 14 14 15 15 15 13 14 13 13 13 13 14 14 14 15 15 16 15 14 13 13 13 13 14 14 13 12 12 12 13 13 15
1 2 1 0 0 3 2 2 1 2 4 3 4 5 5 4 4 3 3 5 5 3 7 11 9 14 13 14 15 12 13 20 21 19 18 18 18 17 17 17 17 17 14 12 10 10 9 17 18 18 18 17 17 17 16 16 15 15 15 15 15 16 15 15 15 15 14 14 15 15 14 13 13 13 13 13 13 13 14 15 15 15 14 14 13 13 12 13 14 14 13 11 11 11 12 13 15
2 1 1 0 1 2 1 5 2 2 5 4 3 3 4 5 5 4 3 2 8 8 13 17 13 14 11 11 9 12 20 20 21 21 19 18 17 18 16 17 16 15 15 14 12 10 10 11 20 18 18 17 17 17 16 16 15 15 15 15 15 15 15 15 15 15 15 15 15 14 13 13 13 13 13 12 13 13 13 14 14 14 14 13 13 12 12 12 13 13 12 11 10 10 11 12 13
1 1 1 0 1 1 3 5 4 1 2 2 3 4 3 4 1 3 5 5 9 13 11 8 8 13 13 14 11 15 19 19 19 18 18 18 16 18 18 14 16 16 16 15 14 13 11 10 10 16 18 18 17 17 16 16 15 15 15 15 15 15 15 15 14 14 15 15 15 14 13 14 13 13 13 12 11 12 11 13 14 14 13 13 13 12 12 12 12 13 12 10 10 10 11 12 13
2 2 1 1 2 1 3 5 3 3 5 4 3 2 1 2 1 4 3 10 8 9 7 10 16 11 12 10 12 16 19 18 17 17 17 14 14 16 17 16 17 17 16 15 15 14 13 10 10 10 13 18 17 17 16 16 15 15 15 15 14 14 15 15 14 14 14 15 15 14 14 13 13 13 13 13 13 12 12 13 14 13 13 13 12 12 11 11 11 12 11 10 9 9 10 11 12
4 4 2 1 1 2 2 2 3 2 1 5 3 2 2 5 4 1 3 8 7 6 7 14 13 11 14 11 10 13 16 18 19 19 15 15 15 17 19 16 18 16 16 15 14 13 11 10 9 9 10 10 9 14 16 16 15 15 15 14 14 15 15 15 14 14 14 14 14 14 14 14 13 13 13 13 12 12 12 13 13 13 13 13 12 11 11 10 11 11 11 9 8 8 8 9 10
4 2 2 1 2 1 2 1 0 2 2 4 2 1 2 3 9 8 9 5 9 5 8 9 13 12 11 17 11 11 17 22 19 16 17 18 18 17 18 15 16 15 14 14 13 13 11 10 10 9 8 7 8 6 6 11 15 15 15 15 15 15 15 15 15 14 14 13 14 14 14 15 14 13 12 11 12 12 12 12 13 12 13 12 12 10 10 10 10 10 10 9 7 7 7 7 8
5 4 1 0 1 1 3 3 4 3 2 1 4 3 6 4 3 8 7 8 8 7 9 6 3 2 16 10 15 16 21 21 19 18 17 20 19 16 15 15 13 13 12 12 12 11 11 11 9 8 7 7 6 6 6 7 12 14 14 15 15 15 16 15 15 14 14 13 14 14 13 11 12 10 13 9 12 12 12 9 12 12 12 12 11 10 9 9 9 9 9 9 8 6 6 6 6
5 2 0 1 3 2 3 1 2 1 7 2 2 2 7 8 8 2 2 7 9 12 7 7 2 11 14 15 19 19 21 20 18 20 16 14 14 13 11 10 10 11 10 11 10 10 11 11 10 8 8 8 8 7 6 6 9 13 12 14 15 15 14 15 14 14 13 13 12 13 11 6 4 5 6 5 10 6 10 11 11 12 12 11 10 9 8 8 8 7 7 7 7 6 5 5 5
4 2 1 3 4 2 2 2 3 3 6 3 6 4 7 7 9 7 4 3 1 13 10 7 3 11 13 16 20 19 19 19 21 20 15 13 12 12 12 11 10 10 10 9 10 11 11 9 10 10 8 9 8 6 5 5 6 9 6 7 7 10 11 12 8 5 9 5 11 8 5 5 5 4 5 7 3 6 7 12 11 11 11 10 10 9 7 7 6 7 7 7 6 6 5 3 3
5 3 4 6 4 4 3 2 4 3 3 5 3 2 2 8 8 2 2 2 3 7 12 9 10 15 14 17 19 20 19 18 20 17 19 16 13 14 12 11 10 10 9 9 9 11 9 9 10 9 9 9 9 7 6 5 6 5 5 6 6 9 9 8 5 6 3 4 4 4 5 4 4 3 4 5 5 9 7 11 11 11 10 10 9 9 7 6 6 6 6 6 5 3 2 1 0
9 6 5 6 6 3 3 5 4 7 4 5 6 3 7 4 5 3 3 6 2 2 10 9 15 20 20 20 19 19 17 19 15 18 18 18 15 15 14 13 12 10 11 9 10 9 9 8 9 9 10 9 8 6 6 5 5 5 5 5 5 5 6 6 5 6 5 4 4 4 4 4 4 3 8 12 10 5 6 9 11 10 10 9 10 6 7 6 6 5 4 3 3 1 1 1 0
6 7 6 3 8 3 6 5 6 6 5 6 4 6 5 2 2 2 4 6 2 4 2 8 19 23 21 20 20 18 18 18 16 17 18 17 16 13 13 13 11 10 9 9 9 9 9 9 9 9 9 8 7 7 7 6 6 5 5 5 5 5 6 5 5 5 5 5 4 4 5 4 4 4 3 4 4 4 3 3 4 3 3 3 6 2 2 2 3 2 1 1 1 1 1 2 1
5 8 12 5 6 6 5 7 8 9 4 7 6 5 5 1 3 4 4 7 5 4 4 10 19 21 22 22 20 16 19 17 17 17 18 18 16 15 13 12 12 11 9 9 10 10 10 10 10 9 9 8 8 8 7 8 8 6 5 5 5 4 5 5 5 5 5 4 4 3 5 5 4 4 3 4 4 3 3 3 3 3 3 3 3 4 2 1 1 1 1 2 3 3 4 3 3
7 6 8 10 9 6 8 9 9 9 5 9 6 7 6 4 5 7 8 6 5 6 3 16 17 19 20 18 18 17 19 18 18 16 18 17 15 14 14 13 13 12 9 9 10 9 10 9 11 10 9 8 9 8 7 7 6 6 6 6 5 4 4 5 5 4 3 3 2 1 5 5 5 5 4 3 5 4 4 4 4 4 4 3 2 3 2 4 3 3 4 4 5 3 3 7 4
8 4 3 10 7 11 13 12 13 9 10 7 4 9 7 7 4 7 5 6 4 6 4 7 18 18 18 19 17 17 17 18 17 14 16 16 16 15 15 14 13 12 11 11 10 10 9 11 10 10 8 8 9 9 8 7 6 7 7 7 6 6 5 5 5 5 4 4 2 2 4 5 5 5 4 4 3 4 4 3 3 4 3 3 2 2 2 4 3 5 5 5 3 2 2 5 8
9 8 10 9 10 9 13 12 12 12 11 9 10 10 12 11 8 5 8 9 7 6 4 7 19 18 17 18 16 15 16 17 16 14 14 12 14 15 14 11 13 12 13 12 10 10 11 11 11 10 8 8 6 10 9 7 7 6 7 7 6 7 5 5 5 5 5 4 2 2 3 5 5 5 4 4 4 4 4 4 3 2 4 4 3 2 3 3 3 2 2 2 0 1 0 2 3
6 8 8 9 10 10 11 11 14 12 8 9 10 8 7 11 7 5 6 9 8 7 5 14 16 17 16 18 15 15 16 17 15 15 14 13 15 17 15 12 13 13 14 12 12 10 11 11 12 11 10 8 7 10 7 8 7 7 7 6 7 7 5 5 5 5 5 4 4 3 2 4 4 5 4 4 5 4 4 4 3 1 4 3 4 3 2 2 2 2 2 1 1 1 2 0 0
4 8 8 9 7 12 13 14 12 12 8 13 11 10 7 7 7 2 5 11 12 9 12 14 16 15 16 17 15 14 16 17 16 14 14 12 15 15 14 14 14 14 13 13 12 10 10 12 10 11 9 7 8 8 7 9 8 8 6 6 6 6 6 6 5 5 5 4 4 3 3 3 4 3 5 4 4 4 3 3 4 2 4 3 3 3 2 2 0 2 2 2 1 0 1 1 1
9 9 12 5 8 14 13 11 13 9 7 12 9 10 7 4 3 4 8 11 12 10 16 16 13 16 13 16 13 13 13 15 13 12 17 13 12 14 14 13 13 15 13 13 11 11 12 12 12 11 9 9 8 8 7 10 9 8 7 6 6 6 7 7 5 5 5 4 4 4 3 4 2 4 5 4 5 5 4 4 4 3 4 2 3 3 2 2 2 2 2 0 1 0 0 1 2
9 7 8 7 5 2 11 14 16 11 5 13 11 10 8 6 6 6 10 12 13 11 13 14 16 13 14 14 13 11 11 15 13 11 16 9 13 13 14 14 13 14 11 12 11 14 14 12 12 11 10 8 6 7 8 9 8 8 7 7 7 6 6 7 6 5 4 4 4 3 4 4 3 5 5 5 4 4 4 3 3 3 3 4 3 4 2 2 2 2 3 2 1 1 1 2 3
7 6 4 5 4 4 13 12 16 15 9 17 13 3 5 10 8 11 9 10 11 13 12 10 14 13 11 14 14 11 9 9 14 9 14 8 13 13 14 15 14 13 11 10 12 15 12 10 9 9 10 8 7 6 7 7 7 8 7 6 6 7 6 8 7 6 5 4 4 4 4 4 4 4 5 4 4 4 4 4 4 5 4 3 2 2 2 3 3 3 4 3 4 2 3 3 2
6 5 2 3 1 5 7 8 17 14 17 19 12 4 5 7 11 13 11 9 12 13 14 11 14 13 11 11 11 13 17 12 12 9 15 9 13 12 15 15 15 12 10 13 13 14 11 11 10 9 9 8 8 6 7 6 7 7 6 6 6 6 7 9 8 8 7 6 5 5 5 5 3 3 2 4 5 5 5 4 4 5 5 4 3 3 4 4 4 3 2 3 3 3 2 2 1
6 1 4 2 6 3 10 11 16 15 13 24 16 4 7 10 11 16 13 11 12 13 12 10 11 12 13 13 12 12 16 13 12 13 13 11 15 10 15 16 15 14 12 14 12 14 10 13 10 10 10 8 8 7 6 7 8 6 6 6 6 4 7 8 8 8 7 7 6 5 5 4 3 2 2 3 5 4 3 4 5 5 4 4 4 2 2 4 2 3 2 2 2 0 1 1 2
4 4 2 6 7 7 8 12 10 16 13 15 15 4 7 5 11 14 14 14 13 11 12 13 12 13 12 12 11 10 14 12 14 16 14 12 14 10 14 16 16 15 12 14 12 13 11 14 11 12 11 9 10 8 7 6 6 6 7 7 6 4 7 8 7 7 7 7 6 6 6 5 4 3 2 2 4 3 3 3 3 4 3 4 2 1 2 2 2 2 1 1 2 1 0 1 2
4 4 6 6 6 8 9 7 12 11 20 14 16 10 8 8 10 13 15 14 14 11 10 13 10 11 12 11 12 12 13 12 14 16 15 13 13 11 12 15 16 15 13 14 12 14 13 13 11 12 10 8 10 8 8 7 6 6 7 7 5 4 6 7 7 8 7 7 6 6 7 6 5 4 3 3 4 4 3 4 3 3 3 4 3 2 2 2 1 2 1 0 2 2 1 0 2
6 5 8 8 9 9 7 7 8 11 18 17 15 10 10 11 13 15 16 15 13 12 11 13 7 11 13 12 12 12 13 14 14 12 15 14 15 12 12 15 15 15 13 15 11 12 12 11 11 12 9 9 9 8 7 6 6 5 7 6 6 4 4 7 7 8 7 7 7 6 7 6 7 6 5 4 4 4 4 4 4 3 2 3 3 3 3 1 1 2 2 1 0 2 2 2 1
10 10 6 8 8 7 10 12 9 9 14 15 18 12 13 14 12 14 14 14 13 11 8 10 6 9 10 12 12 11 12 14 12 11 14 15 12 13 12 13 15 13 14 14 10 12 13 11 12 11 9 9 8 8 6 6 6 7 8 6 6 3 3 5 6 6 8 7 7 7 5 5 5 5 5 4 4 4 3 3 4 4 3 3 3 2 2 2 1 1 1 1 1 1 1 1 2
13 11 10 8 7 7 12 11 11 11 12 15 18 13 17 16 15 14 14 13 11 11 10 9 9 9 6 9 13 11 13 14 13 13 13 16 15 14 12 13 14 14 15 14 12 11 14 12 13 13 9 10 8 8 6 6 6 5 5 7 6 4 3 4 6 7 9 8 9 8 7 5 5 4 4 5 4 4 3 3 3 4 4 3 3 3 3 2 2 2 1 0 0 0 1 1 1
14 11 10 9 9 9 7 10 11 7 5 12 16 15 19 19 18 17 15 14 14 13 12 10 11 12 8 8 14 10 11 10 15 12 13 13 14 15 13 12 13 15 15 15 14 12 12 13 14 13 9 10 9 9 7 6 5 5 7 7 5 5 4 6 5 7 8 9 9 8 7 6 6 5 4 5 5 4 4 3 3 4 5 4 3 3 3 2 2 2 1 1 1 0 0 1 2
12 9 7 7 8 9 11 10 5 6 7 10 15 15 17 19 18 18 17 17 15 15 15 14 13 13 10 9 11 8 5 11 13 14 14 14 15 17 12 13 13 15 17 15 14 12 12 13 13 12 11 11 9 9 7 7 5 5 6 6 7 4 2 5 5 7 8 9 9 8 8 7 6 5 5 4 6 5 5 4 3 4 5 4 3 3 3 3 3 3 3 2 1 1 1 1 1
8 6 5 7 8 8 6 9 7 1 3 4 18 14 13 17 16 17 17 18 15 16 16 13 12 14 14 13 12 12 8 7 13 14 15 15 13 15 12 14 13 14 15 14 14 14 11 11 12 12 12 11 10 10 9 7 7 6 6 7 5 5 4 4 3 7 8 9 9 8 7 8 7 6 6 5 5 5 5 5 4 4 4 4 5 4 4 3 3 3 2 2 2 0 1 1 1
6 8 7 6 8 9 8 6 9 10 6 7 9 9 9 12 13 13 14 15 13 14 16 13 12 11 12 11 10 12 11 10 10 14 16 15 15 16 14 13 14 14 16 14 15 14 11 14 14 14 12 12 11 11 10 9 7 5 6 7 4 3 3 3 3 6 8 8 7 7 7 9 8 7 6 7 6 6 6 5 5 5 5 4 5 5 5 5 4 3 3 3 2 2 1 0 1
6 6 8 9 10 13 12 9 9 6 8 6 9 2 8 13 20 18 14 12 13 13 16 15 15 12 11 11 11 10 9 9 11 11 16 17 15 15 15 16 15 15 15 15 15 14 13 13 14 13 11 11 12 12 10 10 8 8 8 7 8 6 7 6 6 7 8 8 9 7 6 9 8 7 7 6 6 6 6 6 5 5 4 4 5 5 4 3 3 3 4 4 3 2 1 0 1
6 5 8 11 10 11 12 12 7 5 4 7 1 8 2 14 14 15 16 16 16 14 17 16 14 14 14 13 12 12 11 10 8 8 10 17 17 16 17 18 16 17 15 15 14 14 15 14 15 14 13 11 12 12 9 10 9 7 9 9 9 10 10 7 7 6 8 7 7 7 7 7 7 7 8 6 6 7 6 6 6 6 5 5 4 3 4 4 4 4 4 3 4 2 2 1 0
6 5 11 3 9 10 10 9 7 6 4 9 6 2 4 7 13 17 20 19 18 18 17 17 16 16 16 15 14 13 13 12 11 11 10 13 17 17 18 18 16 17 15 16 14 13 16 14 15 14 13 12 12 12 11 10 11 9 8 7 8 10 9 9 8 8 7 7 8 8 7 6 7 6 8 6 7 7 6 6 6 6 5 6 5 5 6 5 4 3 4 4 3 2 2 3 1
2 6 10 9 10 6 10 11 6 3 4 8 8 6 3 2 10 16 18 15 16 17 17 18 18 18 19 19 16 14 15 15 14 13 14 14 17 17 16 17 16 17 16 17 15 15 14 14 15 14 14 13 12 15 12 10 10 10 10 7 7 8 9 7 6 7 7 6 8 7 8 7 8 6 6 7 7 7 7 6 5 5 5 4 5 5 5 5 5 4 3 4 4 2 2 2 2
7 12 9 8 7 7 7 2 2 2 3 8 6 1 3 4 4 13 14 16 19 16 17 20 19 20 18 17 17 15 13 13 14 16 15 13 15 18 16 17 17 15 16 15 14 14 13 13 15 15 14 14 13 14 13 11 11 11 9 8 9 7 8 6 6 6 7 7 6 8 7 7 7 7 6 7 7 6 7 6 6 6 5 4 5 5 5 5 4 4 5 6 5 4 3 3 2
1 6 10 8 6 5 2 2 2 4 2 7 9 4 2 4 3 10 17 16 18 17 13 13 15 16 17 19 19 16 15 14 14 14 14 14 12 17 16 18 18 15 15 16 15 15 14 15 15 16 15 13 13 15 14 12 11 12 10 10 9 9 8 9 9 5 7 7 7 8 8 8 7 8 5 7 7 6 6 6 6 6 5 4 5 5 5 6 6 6 5 5 4 5 4 3 2
2 3 4 2 4 5 4 1 4 1 2 3 7 4 4 5 5 4 7 10 23 21 21 20 19 20 19 17 17 18 17 15 15 15 14 14 13 14 17 18 19 17 15 17 16 16 15 16 16 16 15 14 13 15 15 13 12 11 11 11 10 9 9 10 11 9 7 9 8 8 8 7 7 6 6 6 7 7 7 6 6 6 6 5 5 5 4 4 7 6 6 5 5 4 4 3 2
8 1 1 3 1 3 3 2 3 3 3 2 6 8 4 9 8 11 10 3 22 23 20 22 22 21 20 19 20 17 17 17 17 15 16 15 15 14 18 18 18 18 15 18 18 17 16 16 18 18 16 15 15 15 16 15 13 12 12 12 10 9 9 10 11 9 7 8 8 7 8 9 7 7 6 6 7 7 7 7 7 6 7 6 5 5 4 4 3 6 6 6 5 5 5 4 3
1 1 1 2 2 1 2 2 2 2 2 6 9 6 8 1 4 11 12 15 9 18 17 20 23 23 22 21 19 18 18 18 17 15 16 17 16 14 16 16 17 17 16 19 18 18 16 16 18 19 18 16 14 15 16 15 15 13 13 12 11 10 9 10 10 10 8 7 7 8 8 9 9 9 8 8 8 7 7 7 7 6 6 6 6 6 5 4 2 4 5 6 6 6 5 5 5
5 2 3 3 1 2 3 2 3 4 7 8 15 7 3 5 4 4 11 12 6 18 21 18 21 22 22 21 20 21 20 18 16 15 17 18 18 17 16 16 16 17 17 19 17 17 17 17 18 20 18 17 15 16 15 16 15 14 13 12 11 9 11 9 9 10 10 8 7 8 7 7 8 8 9 8 8 8 8 7 8 7 5 6 6 6 6 5 3 3 3 3 4 6 6 6 5
3 7 5 5 7 1 6 2 2 2 1 2 5 5 7 8 7 12 10 16 16 9 23 19 17 16 17 16 18 19 19 19 18 18 18 18 20 18 16 15 16 17 18 17 19 17 17 18 19 21 20 19 17 17 16 17 16 14 14 14 13 11 10 9 8 8 9 10 9 9 8 8 8 7 7 7 9 9 8 9 8 8 7 6 7 6 6 5 4 4 3 2 2 3 5 5 5
1 4 6 8 4 5 2 5 11 8 5 6 3 5 6 3 7 8 11 13 16 13 16 21 19 19 20 19 19 19 18 17 17 17 16 17 17 17 17 16 16 18 18 18 18 18 19 18 19 20 19 17 17 17 17 16 15 14 15 15 13 12 12 12 11 10 11 10 10 9 9 9 8 7 7 6 7 8 8 9 9 9 8 7 6 6 6 5 4 5 5 4 3 3 3 5 5
3 3 4 6 6 4 2 3 2 4 3 2 2 4 3 8 5 8 8 10 14 18 9 24 21 20 21 19 18 20 19 19 19 18 17 16 18 19 18 17 18 19 20 19 19 18 17 18 20 20 19 20 18 16 15 14 14 15 14 15 15 14 13 13 12 12 10 10 9 9 9 8 9 9 9 8 7 7 8 9 9 9 8 7 7 6 7 6 6 5 5 5 5 4 3 3 5
9 9 5 3 2 6 3 1 3 2 3 1 4 7 8 4 3 9 14 11 13 15 8 22 20 20 21 20 21 21 20 17 16 17 15 16 15 17 18 19 17 18 19 19 17 18 16 16 19 20 21 21 20 16 15 13 14 12 12 15 16 15 13 13 12 12 10 11 12 11 11 10 9 9 9 9 8 9 7 8 9 9 8 9 7 7 7 7 6 6 6 6 5 5 4 4 4
10 6 7 2 4 5 3 1 2 2 2 0 3 5 6 4 2 15 16 16 11 13 7 24 22 23 22 18 18 16 15 15 16 16 15 16 17 18 19 19 18 18 18 17 18 17 19 18 20 20 19 18 17 17 17 16 16 14 13 13 14 14 14 14 13 13 12 12 12 12 12 11 12 9 10 11 10 10 9 9 9 10 10 9 8 7 8 7 7 7 7 6 6 6 6 5 4
2 4 4 1 2 1 4 1 2 3 3 3 2 3 3 8 5 3 5 8 9 11 7 20 19 22 24 18 18 17 17 16 16 15 15 16 17 17 18 17 18 17 17 17 17 18 18 17 18 20 21 20 21 20 18 16 15 15 14 15 15 14 15 13 14 14 14 13 12 12 12 12 11 11 9 10 11 11 11 10 10 10 10 10 9 9 7 8 8 8 7 7 6 7 7 6 5
5 3 7 8 6 3 3 5 2 5 3 3 4 6 7 12 6 8 4 2 12 8 5 15 20 22 20 20 20 19 17 17 18 17 16 17 16 18 17 16 16 16 16 18 18 16 17 18 18 19 20 20 21 20 18 17 16 16 17 16 16 15 14 14 15 15 14 14 13 12 12 11 12 13 12 11 11 11 11 12 10 10 10 10 10 10 9 8 9 8 8 7 7 7 8 7 6
Wind_Direction
178 175 176 185 196 212 184 132 268 136 266 245 272 158 263 210 160 225 169 119 102 243 197 201 202 226 254 110 99 71 31 135 338 145 163 131 139 150 159 136 139 133 132 138 142 141 132 133 132 130 127 125 124 124 126 126 125 124 121 119 119 120 119 118 115 114 114 111 110 109 105 102 101 101 101 103 101 99 97 98 98 99 99 97 95 92 90 94 94 91 88 90 96 93 90 91 88
179 184 180 188 191 178 215 206 269 315 175 286 242 147 228 179 182 212 166 104 250 195 194 228 220 185 128 99 93 66 33 28 80 101 78 118 127 142 147 140 137 133 133 137 138 134 134 137 135 132 130 127 128 130 130 129 126 123 121 120 120 120 119 118 117 116 114 113 110 106 104 103 104 102 104 104 99 97 100 103 100 100 100 100 100 97 98 103 107 106 105 104 105 108 112 106 100
194 185 183 181 226 197 127 148 281 32 310 275 279 197 135 196 216 204 123 121 229 167 157 202 160 130 85 70 47 78 85 72 93 85 102 130 131 151 142 138 134 131 134 138 134 135 135 138 135 132 132 131 131 131 130 128 126 124 122 122 122 120 120 119 117 116 113 112 110 106 104 106 108 106 107 102 100 97 99 100 99 101 103 103 102 102 104 106 103 98 95 94 93 93 95 100 102
201 200 202 170 154 215 281 111 240 289 274 305 312 257 183 216 217 118 61 153 195 144 177 147 114 86 95 78 99 93 101 82 79 123 126 151 141 149 139 137 131 132 134 135 135 137 138 140 134 134 133 133 132 130 130 129 128 126 125 124 123 122 121 119 117 115 113 111 110 109 108 110 112 113 107 100 98 98 100 99 101 103 103 102 101 103 106 107 102 94 94 98 96 98 99 97 98
279 299 275 234 137 328 241 250 281 25 272 81 266 286 226 252 272 55 261 245 311 272 114 102 98 106 111 122 131 103 118 105 103 101 119 121 138 139 135 133 136 136 133 133 134 136 141 139 136 136 136 134 132 132 132 130 129 128 128 128 126 125 123 121 119 118 116 113 109 107 110 112 112 110 108 106 100 98 100 101 104 107 108 107 105 107 107 105 100 100 98 95 98 101 100 97 103
263 285 261 212 113 192 194 268 231 211 237 219 261 285 269 324 66 122 181 207 72 183 121 112 104 117 80 55 81 106 136 127 129 114 128 138 142 134 137 144 140 136 136 134 132 135 138 140 138 138 137 135 134 133 132 132 131 131 132 132 130 128 126 125 122 119 117 114 112 115 117 116 115 114 110 102 97 98 100 103 106 109 110 112 117 115 112 108 107 103 99 97 99 102 103 100 102
223 199 310 42 24 71 262 282 300 295 290 293 253 308 256 285 88 105 189 126 144 131 300 102 103 102 88 103 105 105 97 118 125 128 136 138 134 136 143 140 134 128 128 128 130 132 137 139 140 139 138 137 136 135 134 133 134 134 136 134 131 129 127 123 121 120 118 118 116 117 116 117 115 110 107 104 102 102 102 107 110 109 109 112 115 115 111 108 105 104 102 102 102 104 103 102 100
250 53 312 89 247 301 261 272 255 232 247 224 242 292 340 39 84 13 25 55 150 73 140 129 100 95 92 99 98 116 128 115 119 131 131 131 135 138 137 130 123 123 126 129 131 132 140 141 143 143 142 140 139 137 136 137 137 137 137 135 131 127 125 122 121 121 120 118 117 115 116 119 117 116 113 108 106 104 105 108 111 114 120 120 116 114 112 109 106 104 103 101 102 103 103 102 104
216 137 221 119 295 229 299 259 275 272 280 286 268 202 37 46 48 112 79 348 16 293 120 108 123 102 115 112 101 111 101 117 124 127 131 134 139 138 133 130 128 128 129 129 131 138 141 145 143 143 143 142 140 139 139 138 137 138 136 133 130 126 123 122 123 121 120 119 118 116 120 121 119 116 112 108 105 107 109 110 115 115 116 118 118 113 112 110 107 105 105 104 103 102 104 104 100
59 309 21 143 64 296 290 288 10 295 276 299 328 345 61 104 128 41 117 97 250 160 145 100 80 100 124 99 106 105 120 123 128 127 131 137 136 133 133 132 129 130 127 128 133 137 143 144 143 144 142 140 140 139 138 139 137 136 135 133 129 126 125 126 124 124 123 121 118 119 122 120 117 116 113 111 109 110 110 109 110 112 112 112 114 114 112 109 108 107 107 108 105 102 104 105 102
140 14 334 308 198 284 287 315 299 81 280 350 351 29 54 127 134 133 128 108 228 177 107 102 95 99 106 106 88 112 124 132 133 135 142 139 136 138 134 128 126 127 130 134 137 137 140 145 142 140 140 141 139 139 138 138 138 137 134 131 128 127 128 127 127 126 125 122 117 118 121 120 118 114 111 109 112 112 114 114 114 110 109 113 115 116 114 112 108 109 110 109 107 105 108 105 105
107 149 58 265 257 212 294 306 311 260 244 351 339 32 48 71 64 95 101 174 230 141 118 126 122 119 98 110 117 129 132 138 136 139 140 141 146 140 122 121 131 133 135 136 137 138 137 133 138 140 139 140 139 137 137 139 138 136 132 129 129 129 128 125 125 125 123 120 119 122 124 122 118 116 115 115 114 114 113 116 112 107 110 113 116 117 116 115 115 113 114 115 111 107 106 107 105
173 150 130 240 250 142 266 291 334 352 5 343 356 70 140 110 170 160 109 215 200 92 78 106 129 122 115 115 129 135 137 138 139 137 139 145 139 120 121 130 136 135 134 135 137 137 135 140 136 139 139 138 138 138 138 138 137 136 133 131 128 129 127 124 124 125 122 119 122 125 125 121 116 117 116 116 116 116 119 120 114 113 114 116 117 119 120 119 119 118 116 117 114 109 109 107 97
160 162 143 282 148 248 264 232 238 8 156 243 198 224 239 149 121 165 188 205 126 118 150 133 129 119 103 108 142 144 140 146 144 145 146 142 121 122 129 135 135 134 137 139 136 137 137 138 136 134 135 137 136 135 136 138 138 137 135 130 129 128 126 123 123 124 122 124 128 127 125 122 121 120 121 119 120 118 117 119 119 116 116 117 117 117 120 121 119 118 117 115 111 106 108 110 105
140 161 122 228 281 288 220 223 110 142 267 201 271 185 16 318 130 198 218 195 143 198 121 111 122 124 156 148 159 151 148 147 148 145 143 130 125 127 131 131 133 137 137 137 138 138 140 137 133 133 135 134 129 128 134 140 139 137 135 133 131 127 125 125 125 126 128 129 127 127 127 126 126 125 125 124 122 118 119 121 121 120 118 115 115 116 118 118 117 117 117 114 112 108 106 99 100
138 157 139 337 271 339 288 267 162 157 138 250 176 183 162 252 166 156 212 257 148 192 133 121 85 94 150 142 145 150 143 143 146 147 142 137 132 125 126 132 135 133 135 140 139 140 137 134 137 136 134 134 132 134 139 142 139 137 135 135 131 128 127 127 127 129 130 127 126 124 124 124 121 122 122 121 121 121 121 129 127 123 119 117 117 118 116 114 115 114 112 112 110 110 100 95 93
140 137 267 192 286 160 251 205 90 70 111 281 39 237 216 144 161 204 31 253 160 120 118 111 103 142 147 145 147 147 143 148 144 146 143 131 123 127 133 135 132 136 142 144 142 138 136 141 140 138 142 141 139 138 139 137 141 138 137 134 133 131 129 128 129 128 127 126 123 120 116 107 102 112 116 133 120 120 132 134 132 128 123 120 120 118 117 117 113 107 101 102 102 99 92 83 77
121 181 175 257 224 241 245 351 74 86 110 155 164 307 307 127 140 141 159 276 196 125 125 103 205 141 142 136 143 147 145 147 147 149 137 130 132 137 141 140 142 145 146 143 141 136 144 145 144 145 147 145 142 141 139 140 138 136 131 130 133 131 131 128 123 119 122 121 123 116 115 119 117 127 140 125 113 126 133 139 132 127 125 125 124 124 121 117 111 104 103 98 98 97 74 45 42
156 193 162 231 190 227 129 90 61 87 93 121 261 189 352 50 56 353 134 318 42 136 128 154 162 131 146 140 145 149 150 142 153 141 136 135 140 140 138 138 144 145 143 139 138 144 147 144 146 149 146 143 143 143 141 141 137 129 128 128 132 137 133 126 128 125 115 108 101 117 118 117 117 112 120 133 132 142 150 135 133 134 132 131 129 127 125 122 110 108 107 112 112 87 47 13 81
194 221 217 224 213 153 139 120 108 107 131 143 166 49 72 329 81 222 104 170 174 204 139 165 143 142 151 147 147 151 150 147 153 138 136 141 143 142 140 143 145 147 140 143 138 141 145 148 149 148 145 149 146 142 142 142 137 136 133 134 132 122 120 127 133 132 131 122 129 131 123 122 121 126 140 136 135 136 139 133 134 137 136 133 131 128 134 135 139 135 137 136 113 62 328 328 286
178 212 238 213 173 154 155 123 121 97 116 124 138 106 60 75 85 221 185 136 138 253 252 166 145 147 149 148 151 158 147 154 146 142 141 144 147 144 146 146 146 141 143 136 135 146 153 151 147 146 151 154 145 141 149 148 143 141 141 141 137 135 138 144 145 136 146 149 146 152 128 128 126 115 101 108 102 117 110 107 114 102 102 114 124 98 120 163 137 141 179 152 298 283 247 270 243
234 211 225 186 164 147 124 135 135 122 153 134 134 116 109 247 72 206 183 141 204 206 238 165 148 150 151 152 155 156 150 154 149 149 145 151 149 146 143 137 135 135 140 140 145 149 156 155 147 151 157 159 144 150 155 151 149 148 148 150 143 135 135 133 128 135 142 148 150 158 132 129 125 119 119 119 125 125 115 123 131 131 123 150 139 155 159 150 171 173 192 215 229 234 212 206 80
233 248 257 154 161 133 157 149 137 160 167 142 149 136 119 88 299 231 198 185 197 198 196 156 151 151 149 150 155 156 153 152 153 157 147 149 146 146 141 140 140 143 148 146 146 150 154 150 150 157 162 161 148 158 154 155 155 151 152 153 144 145 138 127 133 134 139 131 135 109 133 134 132 130 136 139 141 146 148 154 143 138 143 158 126 129 150 177 198 189 204 223 226 215 211 101 91
230 238 299 144 169 149 169 152 155 150 133 125 128 121 104 143 248 229 225 213 212 194 268 154 147 150 152 151 164 158 151 150 158 156 147 149 149 147 146 144 140 142 147 150 148 151 156 152 156 160 165 163 157 160 155 158 150 153 155 154 148 156 147 145 139 142 129 119 136 78 126 138 139 142 147 150 145 132 133 126 126 130 153 118 100 126 151 192 203 200 204 208 211 247 219 142 146
207 218 229 180 179 169 161 155 149 144 130 135 133 154 162 185 185 224 205 180 155 174 203 176 145 152 153 153 165 156 149 153 161 155 151 149 151 144 147 143 139 144 147 152 151 152 155 154 159 163 171 170 160 155 157 151 151 152 155 153 154 158 153 154 138 126 129 144 107 114 106 129 134 141 136 141 123 119 113 124 133 140 131 127 140 209 190 209 200 189 177 170 285 335 312 123 132
261 266 226 186 175 150 159 138 152 145 133 144 155 179 168 183 163 199 154 147 159 158 188 140 141 150 155 160 168 159 154 158 164 159 159 154 150 146 151 148 143 145 149 151 150 157 151 157 163 163 173 173 165 158 155 148 154 156 162 158 158 151 160 144 133 131 137 132 132 119 105 126 125 137 144 146 127 131 126 133 135 167 136 164 168 157 179 159 207 191 153 146 194 300 342 238 116
272 243 238 242 136 155 160 142 160 151 149 155 166 176 194 176 179 142 153 145 157 170 152 144 149 157 159 167 166 161 160 160 167 162 158 162 151 150 153 147 148 147 151 151 154 156 151 159 162 164 172 174 161 164 152 149 153 158 165 156 151 155 149 145 143 136 143 149 143 145 123 134 144 146 139 137 128 129 139 137 160 178 156 187 150 134 125 150 96 105 134 167 162 338 296 339 301
298 319 321 285 161 162 160 143 152 146 159 147 151 143 202 187 207 163 178 160 164 170 154 160 159 154 167 169 166 162 163 161 163 169 167 168 153 153 153 150 150 149 153 157 154 151 157 162 162 169 170 166 164 162 142 147 155 161 161 154 160 163 148 153 138 142 154 153 149 153 155 160 157 138 137 140 146 147 152 162 182 169 158 122 106 135 183 157 141 143 137 107 200 217 299 282 272
291 286 286 305 318 122 159 167 164 174 149 151 154 127 165 187 215 161 165 160 175 168 159 167 152 161 165 165 168 172 167 161 169 176 173 167 151 153 149 153 150 150 154 157 154 152 162 162 161 162 159 165 157 153 139 149 151 155 160 161 167 173 161 145 141 155 159 162 146 145 161 154 136 134 141 149 155 159 163 177 181 145 139 142 143 167 187 154 143 140 145 172 222 298 263 240 220
275 284 232 276 279 271 181 182 167 170 160 156 150 124 222 187 194 151 157 154 162 151 161 176 151 165 168 164 170 157 159 184 176 177 170 158 156 152 150 155 151 151 152 157 157 156 164 155 158 155 159 161 153 144 138 144 142 150 159 158 171 168 137 147 151 158 164 157 149 157 133 134 137 130 148 160 160 155 164 173 143 138 154 152 158 185 141 123 155 150 181 142 201 199 225 227 235
228 237 256 211 283 248 243 220 162 191 152 159 163 123 241 196 180 160 171 163 170 163 164 178 156 165 166 168 167 155 164 192 182 165 172 160 161 154 152 153 150 152 149 157 162 159 166 150 159 154 163 157 150 142 143 140 141 147 145 149 161 140 130 143 148 156 160 158 154 145 144 136 126 143 178 143 147 154 164 153 134 144 155 160 179 198 162 169 154 143 127 140 175 214 244 260 247
305 265 256 268 195 217 248 228 180 179 163 169 182 169 198 200 159 167 166 177 176 170 162 159 163 172 161 169 170 160 166 179 170 171 182 163 168 156 153 153 150 155 155 159 157 162 160 150 159 155 164 154 144 146 145 141 146 142 142 147 165 140 139 136 146 150 153 152 148 143 145 136 143 158 131 140 141 162 156 145 155 153 150 140 146 151 124 119 120 104 113 137 114 24 23 320 244
268 245 232 227 187 226 233 240 224 188 162 166 176 114 134 195 161 167 164 178 169 176 156 166 175 166 153 161 170 161 166 172 170 179 190 165 170 159 154 154 152 157 156 159 159 164 153 153 153 157 165 151 147 144 144 140 153 137 140 154 180 162 149 144 150 147 145 146 149 146 153 146 153 146 145 153 142 154 134 138 160 138 135 130 117 81 86 110 95 105 86 151 152 147 147 319 315
259 197 239 247 226 197 232 227 229 189 157 169 174 138 182 167 178 166 167 177 169 178 168 171 175 168 164 164 168 169 170 175 180 183 182 167 168 162 153 154 152 155 156 162 161 162 154 153 151 158 166 146 148 146 148 149 155 140 140 163 178 194 158 155 150 149 151 146 146 150 153 154 157 161 167 168 140 153 144 148 151 139 134 110 107 101 98 74 79 126 96 272 162 140 129 28 303
229 218 210 225 247 250 249 227 202 208 164 161 173 146 172 157 172 172 173 177 172 176 169 178 160 167 161 160 173 176 171 176 183 186 170 164 169 162 153 155 152 155 156 166 159 160 153 151 148 159 162 150 148 146 158 149 150 139 145 158 174 203 171 156 151 153 151 146 148 149 149 154 156 163 173 152 151 152 144 142 140 146 128 126 118 100 93 66 44 105 147 174 139 187 148 173 221
225 233 208 216 216 216 237 250 260 211 163 159 166 161 163 157 172 168 170 171 176 177 166 164 157 157 163 163 175 176 171 176 181 186 168 168 167 164 157 155 154 154 156 167 158 155 154 148 150 156 159 155 142 148 149 148 144 141 147 155 170 204 182 153 151 147 142 145 147 148 151 151 151 154 151 150 140 134 141 150 148 146 142 132 130 128 137 148 186 190 222 159 278 297 257 210 216
278 288 288 275 268 241 217 232 238 234 173 164 166 166 153 165 172 172 173 164 167 177 172 152 165 173 169 164 175 180 171 177 180 185 173 168 162 167 157 153 155 154 155 163 161 154 160 149 152 157 157 154 144 152 148 156 152 140 135 161 172 191 183 157 137 127 139 148 150 149 154 156 151 154 156 142 143 141 135 126 131 144 149 152 152 165 174 192 199 181 147 17 74 106 269 265 324
275 282 293 301 301 284 264 224 225 235 175 156 161 169 152 162 169 171 168 165 172 181 178 165 167 179 171 169 172 180 168 170 176 184 175 174 164 168 158 157 157 156 161 160 165 156 161 152 155 156 151 153 152 157 157 158 168 164 154 170 167 183 162 155 150 137 139 148 152 150 155 160 156 163 164 148 146 149 140 150 149 144 153 163 176 172 173 197 153 135 117 31 329 96 87 201 221
248 258 280 287 282 294 291 283 251 209 195 176 167 172 155 161 170 166 170 173 178 183 179 175 167 173 175 173 164 165 159 171 179 180 177 176 171 164 162 161 159 157 161 161 165 154 158 156 155 156 153 156 156 159 157 166 168 159 153 168 170 169 174 158 162 146 146 148 157 154 154 160 160 164 171 159 152 157 161 161 166 165 164 164 158 179 165 175 189 168 153 156 259 321 260 218 124
232 252 248 252 271 280 310 303 298 210 204 166 180 153 168 158 163 171 173 177 180 177 175 175 170 174 178 175 169 174 169 168 177 185 180 178 175 165 161 164 159 154 162 162 164 159 160 157 157 157 155 158 158 166 164 172 173 165 149 162 169 161 170 159 159 124 144 147 159 161 158 162 167 170 175 167 153 153 160 164 164 169 180 177 169 167 168 177 179 166 148 164 146 263 252 250 156
236 222 241 263 266 268 264 278 304 316 301 259 162 154 161 154 161 175 182 178 174 170 169 170 171 177 177 172 166 175 176 172 185 188 178 178 175 169 165 166 158 160 165 167 167 164 163 162 161 159 159 160 165 168 165 167 174 164 157 157 157 135 126 140 167 122 155 157 155 170 164 165 167 172 174 171 168 158 162 167 164 181 174 182 165 164 176 185 186 177 172 166 192 164 80 81 291
259 238 214 228 260 278 288 307 326 360 336 279 210 138 177 177 173 175 170 170 182 171 172 171 172 169 169 175 173 178 184 177 180 192 177 180 177 169 169 169 166 166 166 170 169 167 158 162 159 161 160 161 169 173 166 165 178 171 173 153 159 165 162 178 182 169 164 164 167 174 159 167 169 173 176 177 170 168 169 173 168 170 175 192 168 171 169 161 165 185 195 168 215 249 161 125 286
228 234 214 214 229 257 277 292 325 314 259 309 264 209 215 172 181 176 172 176 178 171 179 173 171 172 175 178 176 178 184 185 192 194 192 178 179 171 169 173 170 170 166 168 166 167 162 160 162 163 164 165 169 176 169 168 172 181 179 172 165 168 171 191 187 175 159 168 159 167 169 168 173 172 178 177 172 173 174 174 173 174 177 181 177 164 161 184 188 195 183 167 212 208 124 94 115
238 279 281 253 213 226 254 267 249 248 301 298 305 282 189 173 191 179 175 171 174 173 176 173 177 176 179 179 177 176 180 186 189 195 203 189 178 174 171 173 170 170 164 168 167 167 166 163 165 165 167 167 171 174 175 174 175 176 186 174 164 172 176 183 176 180 163 166 165 170 171 172 182 181 174 179 175 173 173 173 172 173 178 183 178 171 170 192 190 196 171 182 183 165 140 141 197
226 208 249 269 275 245 225 231 243 245 308 280 304 341 328 242 168 176 166 163 175 182 180 181 180 182 181 181 179 173 178 182 187 192 201 197 179 176 170 173 170 163 167 171 169 172 165 165 166 164 168 171 171 175 175 176 175 178 181 171 163 176 177 178 169 166 173 167 158 172 174 174 182 192 179 177 177 168 170 173 177 180 177 188 183 171 178 182 189 189 176 157 166 191 170 169 132
236 277 296 296 309 312 325 331 247 238 197 270 272 291 283 280 166 166 174 168 178 185 187 184 184 184 183 183 181 178 176 181 189 195 198 195 179 176 173 171 172 166 172 168 170 166 164 168 170 169 169 174 172 175 178 174 175 177 178 180 166 171 173 176 161 161 175 184 156 172 176 175 179 190 185 177 172 168 165 168 172 185 198 183 178 184 188 189 188 182 177 167 172 177 191 166 173
350 208 236 271 284 294 350 34 67 36 285 263 260 268 282 294 236 178 171 182 183 189 189 184 185 183 185 185 183 182 182 186 193 193 189 191 183 177 170 172 175 172 167 167 170 169 166 173 172 176 174 173 172 176 177 178 177 178 181 183 171 169 168 167 174 169 170 183 171 172 176 182 178 187 175 178 173 169 168 168 174 187 191 197 182 190 199 187 185 190 183 170 164 161 176 191 186
228 258 202 230 273 311 316 280 46 68 290 280 290 251 227 242 280 217 214 174 184 180 182 188 181 186 186 186 186 185 184 190 194 194 186 183 189 182 174 172 175 175 166 169 171 171 169 173 174 177 178 175 175 175 177 179 181 182 183 181 178 174 165 169 177 182 174 178 183 168 174 171 181 182 182 166 183 174 169 177 183 182 189 196 193 204 214 183 186 188 182 174 172 170 175 179 189
239 332 58 149 248 181 279 56 255 224 216 269 272 277 268 244 248 269 271 188 185 182 185 184 182 185 184 185 185 184 187 190 194 190 183 183 188 182 179 174 174 175 172 170 172 173 172 173 176 176 182 179 178 175 179 180 181 184 185 184 181 177 172 170 177 184 180 173 179 169 160 173 172 177 192 178 185 180 172 178 185 185 191 191 190 195 214 227 152 180 183 178 172 174 178 183 187
197 145 119 119 231 201 221 216 172 257 248 226 271 259 250 308 285 259 258 259 166 187 193 184 183 182 184 184 183 184 187 192 195 184 176 182 188 188 180 176 174 176 173 172 174 173 173 176 177 180 183 183 177 179 179 181 185 185 187 187 184 178 178 173 177 185 186 179 174 174 170 168 175 184 183 190 187 181 181 183 186 191 187 189 186 188 203 225 177 147 166 171 178 183 181 181 189
203 140 162 188 193 172 196 173 189 190 218 206 214 241 207 191 228 252 264 256 220 173 187 193 189 185 183 180 180 183 186 192 194 190 183 181 186 185 183 178 174 177 174 174 176 174 173 174 178 182 182 183 181 181 181 184 185 185 187 190 187 185 182 178 180 184 185 182 180 176 183 176 173 184 185 187 186 185 182 184 187 194 189 189 186 182 188 197 174 150 133 174 179 176 178 186 192
202 180 161 231 216 126 247 217 195 206 256 282 201 211 170 204 212 204 229 266 271 166 182 184 186 183 179 181 183 186 188 190 191 190 183 179 181 180 181 177 176 177 178 176 177 173 176 177 179 183 183 183 183 181 185 186 187 186 187 188 191 188 187 184 180 182 184 185 183 178 184 185 188 184 188 179 189 186 182 185 187 194 194 187 187 177 175 172 174 163 178 192 215 167 174 173 192
204 148 198 214 242 222 227 282 277 289 296 251 237 288 246 186 210 205 211 223 252 256 171 182 177 179 179 183 186 186 191 188 188 189 183 178 175 179 180 179 178 179 181 181 179 177 178 176 179 182 183 183 186 185 186 187 186 186 189 190 189 189 188 188 188 186 183 187 183 186 182 188 188 188 192 189 185 188 187 183 186 190 192 188 184 183 175 176 174 169 181 192 210 230 177 183 194
293 263 208 205 218 276 157 221 205 251 187 252 240 266 277 163 241 215 231 205 221 244 177 178 172 175 178 185 184 188 190 188 189 186 187 180 177 178 178 180 179 182 183 182 182 179 177 176 179 179 180 183 186 185 187 188 189 190 190 191 192 191 191 192 190 190 185 182 188 188 188 185 188 190 193 198 195 187 183 186 184 188 189 187 185 183 179 177 176 183 186 192 202 205 214 210 192
241 240 330 336 27 215 300 64 266 259 290 299 252 282 273 196 233 191 219 209 208 228 186 170 169 173 181 183 189 192 189 186 183 187 183 183 177 176 179 179 179 180 182 183 181 180 175 176 178 179 183 184 183 183 185 188 192 194 193 193 192 193 193 192 192 191 188 185 188 189 191 193 190 188 190 194 197 199 184 184 184 185 185 188 187 185 180 180 177 185 190 195 198 198 212 217 217
214 291 280 164 135 239 304 226 249 69 276 24 269 245 268 263 223 196 199 206 218 214 164 168 167 177 182 180 187 182 181 183 187 185 182 185 182 181 181 181 180 179 179 181 180 181 181 177 176 181 182 179 180 183 183 189 193 196 197 197 197 195 193 193 192 189 192 192 191 190 192 191 194 188 190 191 194 196 193 184 186 185 186 185 189 189 183 186 184 188 192 194 197 192 203 214 224
324 261 275 344 253 145 178 311 244 179 200 210 300 318 276 268 259 204 209 232 221 220 165 169 167 179 179 181 180 182 184 184 185 181 182 183 184 186 185 185 187 183 181 182 182 182 183 179 178 178 178 180 185 185 183 187 188 196 197 197 198 195 195 194 194 193 195 196 194 193 194 193 190 195 188 189 194 194 193 190 185 187 185 187 190 191 188 186 189 192 196 194 192 190 195 207 208
325 336 295 311 290 227 248 281 204 234 189 196 211 250 271 263 288 351 19 239 233 212 179 168 172 179 175 181 183 183 181 183 179 183 183 183 185 185 184 185 182 180 181 183 185 182 181 182 179 178 180 183 185 186 186 184 187 192 196 198 199 197 195 194 194 195 197 197 198 196 195 192 192 196 194 192 191 193 191 190 187 188 187 187 190 193 191 186 192 193 197 196 199 193 199 201 199